Location: Devore Heights
(34.2372°N, 117.4156°W)
Time: 19:02:18
(UTC+00:00)

deb Explorer IX - Pass Details

Date: 17 September 2024
Orbit: 502 x 816 km, 38.7° (Epoch: 15 October)

Event Time Altitude Azimuth Distance (km) Brightness Sun altitude
Rises 03:23:41 0° 257° (WSW) 3,364 ? -19.1°
Reaches altitude 10° 03:26:12 10° 259° (W) 2,453 ? -19.6°
Maximum altitude 03:32:06 73° 344° (NNW) 887 ? -20.8°
Enters shadow 03:34:58 32° 63° (ENE) 1,422 ? -21.3°
Drops below altitude 10° 03:37:59 10° 69° (ENE) 2,445 - -21.9°
Sets 03:40:30 0° 72° (ENE) 3,352 - -22.4°
